Location: Mount Wilson Observatory
(34.2257°N, 118.0571°W)
Time: 04:43:04
(UTC-07:00)

ATLAS 3B CENTAUR R/B - Visible Passes

Search period start: 24 April 2014 00:00
Search period end: 04 May 2014 00:00
Orbit: 224 x 8826 km, 28.2° (Epoch: 23 April)

Date Brightness Start Highest point End Pass type
(mag) Time Alt. Az. Time Alt. Az. Time Alt. Az.
24 Apr 5.0 03:38:47 31° SSW 03:47:04 49° SE 04:32:09 10° E visible
25 Apr 5.7 01:39:55 17° SE 01:41:23 18° ESE 01:55:00 10° E visible
25 Apr 5.3 04:48:38 19° SW 05:03:28 67° SSE 06:03:01 10° E visible
26 Apr 5.0 02:49:24 34° SSE 02:53:34 38° SE 03:25:53 10° ENE visible
27 Apr 4.9 03:58:29 31° SSW 04:07:24 59° SSE 04:56:00 10° E visible
28 Apr 5.3 01:58:36 26° SE 01:59:35 26° SE 02:19:21 10° E visible
28 Apr 5.3 05:07:10 14° WSW 05:23:32 73° SSE 06:25:02 10° E visible
29 Apr 4.6 03:06:56 40° S 03:11:15 48° SE 03:47:04 10° E visible
30 Apr 5.7 01:06:23 14° ESE 01:06:23 14° ESE 01:12:42 10° E visible
30 Apr 4.8 04:14:51 27° SW 04:24:41 66° SSE 05:15:27 10° E visible
01 May 4.9 02:13:58 35° SE 02:14:45 35° SE 02:38:06 10° E visible
01 May 5.4 05:22:40 10° WSW 05:40:15 76° S 06:42:43 10° E visible
02 May 4.4 03:21:09 42° SSW 03:25:54 57° SSE 04:03:45 10° E visible
03 May 5.4 01:19:36 21° ESE 01:19:36 21° ESE 01:29:56 10° E visible
03 May 4.9 04:27:56 22° WSW 04:38:44 71° SSE 05:30:35 10° E visible
